Simultaneous Nadir Overpasses (SNOs) Predictions

Prediction of SNOs over PacNW region [( 10.00, 139.50) to ( 22.70, 165.60)] between NOAA-19 and NPP Satellites:

Table of predicted SNOs over PacNW region for the next 30.0 days since TLE Epoch: 3/29/2013
Index Date (NOAA-19) Time (NOAA-19) NOAA-19 Lat,Lon Date (NPP) Time (NPP) NPP Lat,Lon Distance(km) Time Diff (sec)
1 03/31/2013 15:15:52 22.64, 158.93 03/31/2013 15:16:34 23.40, 155.58 353.91 42
2 04/01/2013 02:32:18 22.66, 162.38 04/01/2013 02:29:19 22.19, 160.02 248.51 179
3 04/13/2013 03:45:24 22.46, 144.21 04/13/2013 03:45:28 21.75, 141.08 331.77 4
4 04/13/2013 16:21:43 10.04, 140.40 04/13/2013 16:18:07 8.30, 137.70 354.44 216
5 04/25/2013 03:12:55 10.09, 154.49 04/25/2013 03:16:31 8.77, 150.49 463.93 216
6 04/25/2013 15:49:41 20.77, 150.28 04/25/2013 15:49:08 21.40, 147.12 334.98 33
7 04/26/2013<
